Location: Unspecified
(0.0000°N, 0.0000°E)
Time: 09:28:36
(UTC+00:00)

ARIANE 6 FM1 Upper Stage - Pass Details

Date: 07 November 2025
Orbit: 523 x 612 km, 62.0° (Epoch: 12 November)

Event Time Altitude Azimuth Distance (km) Brightness Sun altitude
Exits shadow 03:59:37 37° 186° (S) 896 3.7 -24.9°
Drops below altitude 10° 04:02:27 10° 166° (SSE) 1,903 5.7 -24.2°
Sets 04:04:46 0° 162° (SSE) 2,820 6.7 -23.7°
